Weather History for KORC - March, 2014

Change the Weather History Date:

Friday, March 7, 2014

  Actual Average Record
Temperature  
Mean Temperature 25 °F -  
Max Temperature 33 °F 32 °F 68 °F (1950)
Min Temperature 17 °F 18 °F -7 °F (2008)
Degree Days  
Heating Degree Days 40    
Moisture  
Dew Point 22 °F    
Average Humidity 79    
Maximum Humidity 93    
Minimum Humidity 69    
Precipitation  
Precipitation 0.00 in - - ()
Sea Level Pressure  
Sea Level Pressure 29.94 in    
Wind  
Wind Speed 13 mph (NNW)    
Max Wind Speed 20 mph    
Max Gust Speed 28 mph    
Visibility 7 miles    
Events      
Averages and records for this station are not official NWS values.
T = Trace of Precipitation, MM = Missing Value Source: NWS Daily Summary

Daily Weather History Graph

Daily Weather History Graph

Search for Another Location

Airport or City:

Trip Planner

Search our weather history database for the weather conditions in past years. The results will help you decide how hot, cold, wet, or windy it might be!

Date:

Astronomy

Mar. 07, 2014 Rise Set
Actual Time 6:50 AM CST 6:21 PM CST
Civil Twilight 6:21 AM CST 6:49 PM CST
Nautical Twilight 5:48 AM CST 7:22 PM CST
Astronomical Twilight 5:15 AM CST 7:55 PM CST
Moon 10:34 AM CST (3/7) 12:36 AM CST (3/7)
Length of Visible Light 12h 27m
Length of Day
11h 30m
Waxing Crescent, 42% of the Moon is Illuminated
Mar 7
Waxing Crescent
Mar 8
First Quarter
Mar 16
Full
Mar 23
Last Quarter
Mar 30
New

Hourly Weather History & Observations

Time (CST) Temp. Windchill Dew Point Humidity Pressure Visibility Wind Dir Wind Speed Gust Speed Precip Events Conditions
12:15 AM 33.8 °F 25.3 °F 28.4 °F 81% 29.71 in 4.0 mi South 11.5 mph - N/A   Clear
12:35 AM 33.8 °F 23.9 °F 28.4 °F 81% 29.71 in 4.0 mi South 15.0 mph - N/A   Clear
12:55 AM 33.8 °F 23.9 °F 28.4 °F 81% 29.71 in 4.0 mi South 15.0 mph - N/A   Clear
1:15 AM 32.0 °F 20.8 °F 28.4 °F 87% 29.70 in 4.0 mi South 17.3 mph - N/A   Clear
1:35 AM 32.0 °F 22.5 °F 28.4 °F 87% 29.71 in 4.0 mi South 12.7 mph - N/A   Clear
1:55 AM 32.0 °F 22.5 °F 28.4 °F 87% 29.70 in 4.0 mi South 12.7 mph - N/A   Clear
2:15 AM 32.0 °F 22.5 °F 28.4 °F 87% 29.70 in 4.0 mi South 12.7 mph - N/A   Clear
2:35 AM 33.8 °F 24.8 °F 28.4 °F 81% 29.69 in 5.0 mi South 12.7 mph - N/A   Clear
2:55 AM 33.8 °F 25.3 °F 28.4 °F 81% 29.69 in 5.0 mi South 11.5 mph - N/A   Clear
3:15 AM 33.8 °F 24.3 °F 28.4 °F 81% 29.69 in 5.0 mi SSW 13.8 mph - N/A   Clear
3:35 AM 33.8 °F 24.3 °F 30.2 °F 87% 29.70 in 5.0 mi SSW 13.8 mph - N/A   Clear
3:50 AM 33.8 °F 25.3 °F 30.2 °F 87% 29.70 in 4.0 mi South 11.5 mph - N/A   Scattered Clouds
4:15 AM 33.8 °F 27.7 °F 28.4 °F 81% 29.70 in 4.0 mi SSW 6.9 mph - N/A   Clear
4:35 AM 30.2 °F 23.4 °F 28.4 °F 93% 29.72 in 4.0 mi SSW 6.9 mph - N/A   Clear
4:55 AM 30.2 °F 23.4 °F 28.4 °F 93% 29.73 in 4.0 mi SW 6.9 mph - N/A   Clear
5:15 AM 30.2 °F 24.3 °F 28.4 °F 93% 29.74 in 4.0 mi WSW 5.8 mph - N/A   Scattered Clouds
5:35 AM 30.2 °F 25.4 °F 28.4 °F 93% 29.74 in 3.0 mi WSW 4.6 mph - N/A   Mostly Cloudy
5:55 AM 30.2 °F 24.3 °F 26.6 °F 86% 29.76 in 3.0 mi West 5.8 mph - N/A   Scattered Clouds
6:15 AM 30.2 °F 25.4 °F 26.6 °F 86% 29.76 in 2.5 mi NNW 4.6 mph - N/A   Clear
6:35 AM 28.4 °F 22.2 °F 26.6 °F 93% 29.78 in 2.5 mi NW 5.8 mph - N/A   Clear
6:55 AM 30.2 °F 23.4 °F 28.4 °F 93% 29.80 in 3.0 mi NNW 6.9 mph - N/A   Clear
7:15 AM 30.2 °F 21.9 °F 28.4 °F 93% 29.81 in 2.5 mi NNW 9.2 mph - N/A   Clear
7:35 AM 32.0 °F 23.6 °F 28.4 °F 87% 29.83 in 2.5 mi NNW 10.4 mph - N/A   Clear
7:55 AM 32.0 °F 20.8 °F 28.4 °F 87% 29.82 in 3.0 mi North 17.3 mph 23.0 mph N/A   Clear
8:15 AM 33.8 °F 22.8 °F 28.4 °F 81% 29.82 in 3.0 mi North 18.4 mph 26.5 mph N/A   Haze
8:35 AM 33.8 °F 23.5 °F 28.4 °F 81% 29.86 in 3.0 mi North 16.1 mph 27.6 mph N/A   Overcast
8:55 AM 33.8 °F 23.9 °F 28.4 °F 81% 29.87 in 5.0 mi North 15.0 mph 24.2 mph N/A   Haze
9:15 AM 33.8 °F 22.5 °F 26.6 °F 75% 29.89 in 7.0 mi North 19.6 mph 25.3 mph N/A   Overcast
9:35 AM 33.8 °F 22.8 °F 26.6 °F 75% 29.89 in 7.0 mi North 18.4 mph 25.3 mph N/A   Mostly Cloudy
9:55 AM 32.0 °F 20.8 °F 26.6 °F 80% 29.91 in 7.0 mi North 17.3 mph 24.2 mph N/A   Mostly Cloudy
10:15 AM 30.2 °F 18.9 °F 24.8 °F 80% 29.92 in 7.0 mi North 16.1 mph 24.2 mph N/A   Mostly Cloudy
10:35 AM 30.2 °F 19.3 °F 24.8 °F 80% 29.92 in 7.0 mi North 15.0 mph 25.3 mph N/A   Scattered Clouds
10:55 AM 30.2 °F 18.5 °F 24.8 °F 80% 29.93 in 7.0 mi North 17.3 mph 27.6 mph N/A   Scattered Clouds
11:15 AM 30.2 °F 20.2 °F 24.8 °F 80% 29.94 in 7.0 mi North 12.7 mph 21.9 mph N/A   Mostly Cloudy
11:35 AM 28.4 °F 16.6 °F 21.2 °F 74% 29.96 in 7.0 mi North 16.1 mph 24.2 mph N/A   Scattered Clouds
11:55 AM 28.4 °F 18.0 °F 21.2 °F 74% 29.97 in 7.0 mi North 12.7 mph 25.3 mph N/A   Mostly Cloudy
12:15 PM 28.4 °F 16.6 °F 21.2 °F 74% 29.98 in 7.0 mi NNW 16.1 mph 21.9 mph N/A   Overcast
12:35 PM 28.4 °F 16.6 °F 19.4 °F 69% 29.98 in 7.0 mi North 16.1 mph 23.0 mph N/A   Mostly Cloudy
12:55 PM 28.4 °F 15.4 °F 19.4 °F 69% 29.99 in 7.0 mi North 19.6 mph 25.3 mph N/A   Scattered Clouds
1:15 PM 26.6 °F 15.2 °F 19.4 °F 74% 30.00 in 10.0 mi North 13.8 mph 24.2 mph N/A   Mostly Cloudy
1:35 PM 26.6 °F 13.8 °F 19.4 °F 74% 30.00 in 10.0 mi North 17.3 mph 21.9 mph N/A   Mostly Cloudy
1:50 PM 26.6 °F 13.4 °F 19.4 °F 74% 30.01 in 10.0 mi NNW 18.4 mph 23.0 mph N/A   Scattered Clouds
2:15 PM 26.6 °F 15.2 °F 19.4 °F 74% 30.00 in 10.0 mi North 13.8 mph 19.6 mph N/A   Scattered Clouds
2:35 PM 26.6 °F 14.7 °F 17.6 °F 69% 30.01 in 10.0 mi North 15.0 mph 27.6 mph N/A   Scattered Clouds
2:50 PM 26.6 °F 15.7 °F 17.6 °F 69% 30.03 in 10.0 mi North 12.7 mph 18.4 mph N/A   Scattered Clouds
3:15 PM 26.6 °F 16.8 °F 17.6 °F 69% 30.04 in 10.0 mi North 10.4 mph 24.2 mph N/A   Scattered Clouds
3:35 PM 26.6 °F 15.2 °F 19.4 °F 74% 30.04 in 10.0 mi North 13.8 mph 17.3 mph N/A   Clear
3:55 PM 26.6 °F 15.2 °F 19.4 °F 74% 30.04 in 10.0 mi North 13.8 mph 18.4 mph N/A   Scattered Clouds
4:15 PM 26.6 °F 14.7 °F 17.6 °F 69% 30.05 in 10.0 mi North 15.0 mph 26.5 mph N/A   Scattered Clouds
4:35 PM 26.6 °F 14.7 °F 17.6 °F 69% 30.06 in 10.0 mi North 15.0 mph 23.0 mph N/A   Clear
4:55 PM 26.6 °F 14.7 °F 17.6 °F 69% 30.06 in 10.0 mi North 15.0 mph 21.9 mph N/A   Clear
5:15 PM 26.6 °F 13.8 °F 17.6 °F 69% 30.06 in 10.0 mi North 17.3 mph 23.0 mph N/A   Clear
5:35 PM 26.6 °F 15.7 °F 17.6 °F 69% 30.08 in 10.0 mi North 12.7 mph 20.7 mph N/A   Clear
5:55 PM 26.6 °F 15.2 °F 17.6 °F 69% 30.09 in 10.0 mi North 13.8 mph 23.0 mph N/A   Clear
6:15 PM 24.8 °F 12.9 °F 17.6 °F 74% 30.10 in 10.0 mi North 13.8 mph 23.0 mph N/A   Scattered Clouds
6:35 PM 24.8 °F 12.4 °F 17.6 °F 74% 30.11 in 10.0 mi North 15.0 mph 21.9 mph N/A   Scattered Clouds
6:55 PM 24.8 °F 14.0 °F 17.6 °F 74% 30.12 in 10.0 mi North 11.5 mph 20.7 mph N/A   Scattered Clouds
7:15 PM 24.8 °F 15.3 °F 17.6 °F 74% 30.12 in 10.0 mi North 9.2 mph 20.7 mph N/A   Scattered Clouds
7:35 PM 24.8 °F 13.4 °F 17.6 °F 74% 30.13 in 10.0 mi North 12.7 mph 17.3 mph N/A   Clear
7:55 PM 24.8 °F 12.9 °F 17.6 °F 74% 30.13 in 10.0 mi North 13.8 mph 21.9 mph N/A   Clear
8:10 PM 24.8 °F 14.6 °F 17.6 °F 74% 30.14 in 10.0 mi North 10.4 mph 17.3 mph N/A   Clear
8:35 PM 23.0 °F 10.6 °F 15.8 °F 74% 30.14 in 10.0 mi North 13.8 mph 23.0 mph N/A   Clear
8:55 PM 21.2 °F 9.5 °F 15.8 °F 80% 30.15 in 10.0 mi North 11.5 mph 19.6 mph N/A   Clear
9:15 PM 21.2 °F 10.1 °F 15.8 °F 80% 30.17 in 10.0 mi North 10.4 mph 17.3 mph N/A   Clear
9:35 PM 21.2 °F 10.9 °F 15.8 °F 80% 30.17 in 10.0 mi North 9.2 mph - N/A   Clear
9:55 PM 19.4 °F 9.5 °F 15.8 °F 86% 30.18 in 10.0 mi North 8.1 mph - N/A   Clear
10:15 PM 19.4 °F 8.6 °F 15.8 °F 86% 30.19 in 10.0 mi North 9.2 mph - N/A   Clear
10:35 PM 19.4 °F 6.6 °F 15.8 °F 86% 30.19 in 10.0 mi North 12.7 mph 16.1 mph N/A   Clear
10:55 PM 19.4 °F 7.9 °F 14.0 °F 80% 30.19 in 10.0 mi North 10.4 mph 18.4 mph N/A   Clear
11:15 PM 19.4 °F 7.2 °F 14.0 °F 80% 30.21 in 10.0 mi North 11.5 mph - N/A   Clear
11:35 PM 17.6 °F 5.7 °F 14.0 °F 86% 30.21 in 10.0 mi North 10.4 mph 16.1 mph N/A   Clear
11:55 PM 17.6 °F 4.3 °F 12.2 °F 79% 30.21 in 10.0 mi North 12.7 mph 18.4 mph N/A   Clear